Theta_e
347 345 345 348 344 346 350 351 348 345 345 345 343 339 339 343 347 346 348 350 350 350 347 346 349 349 350 349 347 346 347 346 345 346 347 347 346 347 348 347 347 347 347
344 346 346 343 349 351 351 345 341 339 337 338 339 339 346 349 350 349 349 348 347 348 351 349 348 347 349 349 347 348 343 347 345 342 347 347 348 348 347 346 346 348 346
344 344 344 345 350 351 349 348 345 340 341 338 344 351 352 351 350 349 346 348 350 351 351 350 349 344 345 343 341 344 345 347 344 343 343 342 347 348 347 346 347 347 347
344 343 343 347 349 351 350 345 346 351 346 348 349 350 351 350 349 350 350 350 350 350 350 350 350 350 348 344 342 343 344 344 346 343 343 347 347 349 348 346 347 346 346
344 343 345 348 348 351 350 350 350 351 351 350 351 351 347 346 345 350 350 350 349 347 347 349 349 348 349 343 342 342 344 345 348 341 344 345 347 349 346 343 344 346 343
345 344 348 350 351 351 351 351 352 352 350 348 349 346 344 345 347 350 351 350 348 348 350 350 349 345 344 342 343 344 345 345 350 344 341 346 347 349 345 347 347 347 344
346 346 350 349 349 351 351 352 351 351 349 342 342 343 346 348 348 349 349 350 350 350 351 348 346 345 344 345 345 343 343 343 342 344 341 342 344 347 348 348 346 345 345
346 347 350 349 348 350 351 351 348 347 341 341 342 345 347 344 345 346 347 349 351 351 347 343 343 343 343 344 345 345 344 343 342 343 338 341 342 348 348 347 345 343 346
346 345 348 349 350 351 351 350 345 339 342 342 345 343 341 342 343 345 346 346 346 346 345 343 343 343 342 344 343 345 342 344 341 341 337 341 345 349 348 346 345 341 345
346 344 347 348 348 349 350 350 346 342 341 343 344 341 343 345 346 348 347 345 344 343 344 343 344 344 345 345 344 345 337 340 340 342 338 342 344 347 348 343 346 341 344
346 346 345 346 347 346 347 349 347 343 340 342 341 339 341 344 347 347 346 345 344 346 345 345 346 346 344 346 345 345 342 338 335 339 341 339 340 347 347 345 346 345 343
347 346 346 347 346 345 346 348 346 342 340 340 338 338 339 341 346 347 346 347 347 346 345 347 346 347 346 345 344 344 346 345 341 341 343 339 338 345 345 346 343 343 343
345 346 346 348 348 346 345 347 347 339 338 337 336 337 340 343 347 348 345 345 347 346 347 347 347 346 347 346 347 343 344 344 342 338 344 341 338 347 345 345 344 341 344
346 345 345 346 349 347 347 347 343 337 337 335 334 336 341 347 348 348 345 346 347 347 347 344 346 346 346 346 346 344 344 344 342 337 343 341 339 342 349 346 346 342 343
345 344 346 346 350 347 344 343 340 336 334 334 335 336 344 349 347 348 347 347 347 347 347 347 347 346 346 347 348 346 342 345 343 340 342 341 341 341 344 348 347 346 343
344 344 345 346 347 347 345 343 336 334 334 335 334 339 346 349 348 350 348 347 347 347 348 346 346 345 347 346 341 345 345 342 345 342 342 340 339 339 338 340 342 346 347
346 344 345 345 345 346 344 340 335 334 334 334 337 342 346 348 349 349 349 347 347 348 348 348 348 346 341 335 334 343 344 344 345 345 341 341 339 339 338 338 338 339 345
349 348 347 345 345 344 341 337 334 335 337 342 345 347 348 349 350 349 349 349 349 348 348 348 347 347 342 336 335 335 333 339 341 342 343 340 341 341 339 337 338 338 338
349 349 347 346 345 343 341 336 336 342 344 347 350 351 350 350 350 349 349 348 348 348 348 348 347 346 334 335 336 334 334 335 335 335 336 340 339 340 340 340 340 339 338
349 349 347 346 345 342 339 338 341 346 348 351 349 349 349 348 349 349 349 349 348 348 350 349 347 343 335 333 334 333 335 336 336 336 336 339 339 340 340 342 342 341 340
348 349 348 348 347 346 346 346 347 347 349 351 349 349 347 347 349 350 349 349 348 349 349 350 347 344 339 333 335 334 336 335 339 337 339 340 340 338 338 342 344 342 341
347 348 348 348 348 348 347 346 348 348 348 351 349 348 350 349 348 349 349 350 347 349 349 349 346 342 330 335 332 332 337 337 338 340 340 341 339 338 338 340 340 340 342
347 347 348 347 347 348 347 347 348 349 350 351 349 348 350 350 349 349 346 351 349 348 348 348 346 339 330 336 334 335 337 338 335 334 337 339 338 339 335 329 330 339 341
348 347 347 347 348 348 348 348 348 349 350 351 350 349 348 350 350 351 351 350 350 348 347 348 346 337 335 335 336 335 335 335 338 339 333 337 339 338 333 330 329 331 332
347 347 347 347 348 348 348 348 348 349 350 350 347 346 348 350 351 350 351 351 351 348 346 348 345 341 335 333 335 335 335 333 334 334 336 334 339 337 335 331 329 328 327
347 347 346 347 348 348 348 349 349 348 349 348 348 347 348 349 348 349 349 351 349 348 347 347 346 342 334 329 335 336 334 334 332 332 332 331 333 332 331 332 331 329 329
Wind_Speed
20 23 24 18 20 22 23 23 24 25 25 24 22 20 18 16 14 14 12 11 12 11 12 11 10 10 11 11 11 11 11 11 9 10 11 11 12 11 12 12 13 12 13
27 22 22 21 20 21 22 23 24 23 23 21 19 19 17 16 14 12 12 11 10 11 11 11 10 9 9 9 10 10 10 10 9 9 11 10 11 12 11 12 12 13 13
24 22 22 22 21 21 21 21 21 20 20 19 19 18 16 14 13 11 10 9 9 10 9 10 10 8 8 8 9 8 8 8 8 10 10 9 10 11 11 12 13 12 12
25 24 22 24 22 20 20 20 19 18 18 17 17 16 14 13 12 10 9 8 8 8 8 8 8 7 7 7 7 7 6 7 7 9 11 13 14 12 11 11 12 12 12
25 23 23 25 22 20 20 18 18 17 16 16 15 14 13 11 10 9 8 7 8 9 7 7 6 6 6 5 5 5 4 5 7 7 8 11 13 11 11 11 12 11 12
23 22 23 23 21 19 18 18 17 16 15 14 13 12 11 10 8 8 7 7 8 7 6 5 6 6 5 5 6 5 4 2 8 7 6 9 12 11 11 11 13 11 10
24 22 22 22 21 19 17 16 16 15 13 13 12 11 9 8 7 6 6 6 7 6 6 7 7 6 6 6 6 5 3 5 8 10 7 9 11 11 11 11 10 12 10
25 22 21 21 20 18 16 15 14 13 12 11 10 9 8 7 6 5 5 5 5 5 6 7 7 7 5 5 4 3 3 5 8 9 7 10 11 11 9 9 10 11 11
23 22 21 21 19 17 15 14 13 12 11 10 9 8 8 6 5 5 5 4 4 4 4 5 6 5 4 4 3 3 3 4 6 6 8 10 11 10 10 9 10 9 9
22 22 21 21 20 18 16 14 13 11 11 9 8 7 6 5 4 3 4 4 4 3 3 5 4 4 3 4 4 1 4 5 5 7 8 11 11 9 9 9 10 9 9
22 22 20 21 21 20 18 15 13 11 11 9 8 7 5 4 3 3 3 3 4 4 4 4 4 3 4 4 3 2 1 2 4 6 8 9 10 8 9 9 9 8 8
24 24 24 22 22 21 19 17 16 14 12 11 9 8 6 4 2 1 0 1 1 1 2 1 2 2 2 4 3 3 3 3 2 3 7 8 9 9 8 7 8 8 8
29 26 27 26 24 23 22 20 18 16 14 12 10 9 7 5 4 3 3 4 2 2 2 1 1 1 1 2 2 4 3 2 1 4 5 7 9 9 9 8 8 9 9
28 30 29 28 26 25 23 21 19 18 16 14 13 10 8 6 3 2 3 2 2 2 3 2 2 1 1 1 2 2 4 1 1 1 5 6 7 8 9 9 9 7 8
29 33 31 30 28 26 25 22 21 20 18 15 13 12 10 8 6 5 5 4 3 3 3 3 1 2 1 2 3 1 2 2 2 2 4 4 4 4 7 8 8 9 9
33 34 33 33 30 27 26 24 23 20 18 16 15 13 13 11 8 7 8 7 4 5 3 2 3 2 3 4 3 5 2 0 2 4 3 5 3 4 4 5 7 8 9
34 35 35 35 32 30 28 26 23 21 19 18 17 16 15 13 11 7 10 10 6 4 6 5 3 3 3 0 1 2 4 2 2 5 6 6 6 4 4 4 4 7 9
30 32 35 35 34 32 30 28 24 22 19 18 18 18 17 14 13 13 12 11 9 8 7 5 4 4 3 4 0 4 4 5 4 4 5 6 7 8 7 5 3 2 4
34 34 34 34 35 34 32 29 26 22 20 19 19 20 19 18 17 15 14 11 10 10 9 8 4 3 2 3 2 3 2 3 2 5 6 6 6 8 8 8 6 5 4
35 35 34 34 34 33 33 31 28 25 22 18 14 13 15 17 19 17 16 12 10 10 11 9 5 3 1 1 2 2 4 3 2 4 1 2 3 4 5 9 9 8 7
31 34 36 36 35 34 35 33 31 29 25 22 19 14 15 15 19 19 18 12 14 11 9 6 6 5 3 1 1 3 7 4 2 4 5 2 2 3 3 2 8 8 8
36 40 40 41 40 39 39 38 32 32 30 28 24 20 17 17 17 22 21 15 13 12 9 8 7 5 3 2 2 3 2 3 4 4 3 3 3 4 3 1 2 3 1
33 37 42 46 44 43 41 34 31 28 29 29 28 25 21 18 17 22 18 18 15 13 13 11 10 7 5 4 2 3 2 1 1 0 3 3 3 4 1 3 4 3 3
37 38 39 40 41 44 42 35 35 29 26 31 34 31 25 23 21 21 22 21 17 14 14 13 12 9 7 7 3 2 3 4 2 1 2 5 7 5 3 1 3 3 3
39 39 42 42 42 42 44 41 40 31 35 35 32 27 27 26 23 23 22 21 19 17 16 15 15 13 10 11 9 5 4 4 5 2 2 4 9 10 8 6 5 4 4
33 33 34 37 43 43 43 45 40 36 34 35 29 26 27 28 26 25 24 22 21 19 18 17 16 14 12 11 13 11 8 4 5 4 2 2 6 6 12 13 11 9 8
Wind_Direction
141 143 141 132 123 116 115 118 124 128 125 125 127 123 118 117 113 107 103 100 93 89 90 94 104 107 108 103 102 105 109 107 110 114 112 117 124 113 111 108 108 111 113
147 145 145 132 124 120 120 121 123 123 123 124 124 119 118 114 112 110 105 98 94 89 88 86 97 104 105 108 112 109 110 108 109 121 123 122 133 119 112 109 109 108 109
149 148 145 136 131 126 124 123 123 124 122 123 119 117 118 119 115 109 106 104 101 92 86 89 93 105 116 118 120 121 119 116 103 127 127 127 136 130 117 115 111 109 108
149 150 147 140 138 130 129 127 126 121 122 118 119 124 126 124 115 106 100 95 87 85 86 87 95 102 115 133 131 128 130 133 113 127 118 118 125 123 118 119 117 112 116
146 149 148 144 141 136 133 133 130 127 125 128 130 129 124 120 113 107 102 93 85 78 78 88 94 105 106 115 122 115 124 137 145 120 124 128 124 125 120 120 115 113 111
143 149 148 147 145 142 139 137 138 134 132 133 132 126 121 119 113 103 96 88 78 73 78 84 94 97 105 112 124 121 124 179 180 151 129 135 130 128 123 121 109 113 118
147 150 150 156 151 150 149 147 144 137 139 138 133 128 123 122 115 103 94 81 70 71 74 83 88 94 104 119 120 123 114 129 149 163 144 154 140 135 135 131 123 122 120
152 155 154 161 161 160 158 157 151 149 148 142 137 132 128 125 115 102 83 71 62 68 76 78 79 85 96 96 97 123 138 140 141 155 151 156 143 142 137 135 129 128 122
158 161 163 165 170 168 168 165 162 163 157 151 145 139 137 128 111 92 76 67 69 79 77 80 81 73 60 64 76 94 116 169 158 159 154 156 148 143 143 139 142 136 141
167 168 171 174 177 178 177 175 174 173 168 161 155 148 141 133 116 93 64 58 61 71 93 86 65 63 28 31 64 86 100 139 180 176 172 161 159 158 156 144 153 148 146
176 175 176 184 185 187 186 183 187 183 181 176 174 170 164 158 140 104 75 55 45 47 68 73 60 31 23 353 61 95 203 138 147 173 176 169 174 165 165 165 167 164 165
184 182 183 191 194 193 193 189 199 193 195 192 190 187 185 199 205 209 222 348 7 2 331 46 70 320 30 31 75 56 325 264 200 163 175 175 173 173 174 179 176 178 180
186 187 192 195 200 198 199 198 203 203 204 204 203 203 207 224 238 257 252 248 250 264 309 261 214 108 62 26 359 5 8 317 293 174 177 192 184 178 181 185 192 184 189
188 194 197 200 201 202 203 204 206 209 209 210 210 211 216 220 215 225 208 221 254 246 294 348 213 84 42 317 328 344 5 10 24 150 176 181 189 192 197 203 198 199 196
195 199 202 202 204 205 206 209 211 212 214 217 219 218 220 229 235 238 230 214 241 262 256 317 286 325 337 306 238 220 38 6 28 85 176 180 193 205 215 205 206 207 213
200 203 205 205 207 208 209 211 214 216 219 225 224 222 226 232 241 259 239 231 254 238 218 298 313 279 305 297 280 214 205 319 208 206 213 213 213 222 210 221 224 216 220
202 206 208 207 209 212 214 214 217 220 224 224 223 224 226 236 247 259 244 243 251 249 221 244 270 254 286 152 118 196 222 232 305 246 248 235 219 204 223 223 231 230 232
201 204 209 210 211 212 216 218 219 222 223 228 238 233 236 239 245 249 245 241 244 242 235 247 273 256 259 301 173 15 263 215 265 263 244 242 235 223 215 221 229 255 248
204 207 209 210 212 212 215 220 221 222 225 236 247 251 240 240 242 241 241 247 247 236 241 236 243 259 325 25 51 7 23 198 234 273 256 241 257 254 248 236 232 244 266
208 212 211 210 213 213 215 219 223 227 232 235 239 232 225 236 232 233 235 239 231 241 254 236 228 209 250 306 5 39 89 85 213 278 170 246 288 267 253 236 232 243 257
204 207 210 209 212 212 213 217 223 226 227 227 229 225 224 231 230 229 232 239 236 252 260 256 250 244 243 248 239 102 80 88 96 122 142 142 108 101 90 239 233 246 256
200 207 208 212 213 213 213 213 216 222 227 226 228 227 228 229 230 228 229 236 235 243 250 232 237 249 281 188 148 118 56 61 89 132 151 145 116 118 97 53 298 283 217
205 204 207 212 211 214 215 213 214 222 225 225 230 228 224 228 225 230 233 234 237 241 247 242 226 233 229 222 175 150 125 178 81 12 184 191 170 164 133 38 58 103 129
208 209 210 209 209 215 215 211 211 210 214 227 233 234 229 228 226 237 238 239 238 240 247 236 222 222 220 212 192 191 163 136 151 224 250 211 200 205 225 223 92 106 120
206 205 207 209 211 213 214 212 214 209 220 231 235 229 223 225 227 234 241 238 234 237 242 231 220 217 229 219 210 180 158 158 163 135 191 217 227 231 239 236 221 187 169
210 208 207 204 207 210 214 214 213 212 216 223 225 221 223 226 230 235 239 234 233 236 236 226 224 222 222 224 216 216 199 178 182 159 133 200 225 238 240 237 236 227 216